Regional Weather Roundup
Issued by NWS

Home | Current Version | Previous Version | Graphics & Text | Print | Product List | Glossary On
Versions: 1 2 3 4 5 6 7 8 9 10 11 12 13 14 15 16 17 18 19 20 21 22 23 24 25 26 27 28 29 30 31 32 33 34 35 36 37 38 39 40 41 42 43 44 45 46 47 48 49 50
000
ASUS43 KIND 180309
RWRIN

WEATHER ROUNDUP FOR INDIANA
NATIONAL WEATHER SERVICE INDIANAPOLIS IN
1100 PM EDT THU AUG 17 2017

NOTE: "FAIR" INDICATES FEW OR NO CLOUDS BELOW 12,000 FEET WITH NO
SIGNIFICANT WEATHER AND/OR OBSTRUCTIONS TO VISIBILITY.

* - STATION DOES NOT REPORT WEATHER SUCH AS PRECIPITATION OR FOG.

+ - STATION NOT QUALITY CONTROLLED BY THE NATIONAL WEATHER SERVICE.
    USE DATA WITH CAUTION...ESPECIALLY DEWPOINT AND RELATIVE
    HUMIDITY OBSERVATIONS.

INZ001>003-010>013-019-020-180400-
NORTHWEST INDIANA

CITY           SKY/WX    TMP DP  RH WIND       PRES   REMARKS
GARY /AIRPORT/   N/A     79  64  61 W17       29.79R
KNOX *+        PTCLDY    72  66  83 SW8       29.80R
LA PORTE +     CLOUDY    73  67  81 SW5       29.79S
MICHIGAN CITY+ CLOUDY    73  64  73 SW8       29.78S
MONTICELLO +   CLEAR     71  67  87 SW6       29.82S
RENSSELAER +   MOCLDY    72  63  73 SW9       29.82R
VALPARAISO     CLOUDY    75  68  78 SW10      29.80S

$$

LMZ046-743>745-180400-
SOUTHERN LAKE MICHIGAN

STATION/POSITION TIME  TEMP    WIND        PRES    WAVE
                       AIR SEA DIR/SP/G            HT
                 (UTC) (F)     (DEG/KT/KT) (MB)    (FT)
BURNS HARBOR     0240   77     230/ 13/ 18 1008.8R
MICHIGAN CITY    0240   76     210/ 18/ 19   N/A
5NW MICH CITY    0300   77 74  240/ 16/ 21   N/A     4

$$

INZ004-005-014>016-021>024-180400-
NORTH CENTRAL INDIANA

CITY           SKY/WX    TMP DP  RH WIND       PRES   REMARKS
GOSHEN         MOCLDY    72  65  78 SW9       29.80R
LOGANSPORT +   PTCLDY    70  64  83 SW7       29.83F
PERU/GRISSOM   CLEAR     71  70  97 SW8       29.83R
ROCHESTER +    CLEAR     73  68  83 SW6       29.82S
SOUTH BEND     CLOUDY    74  68  81 SW9       29.79R
WARSAW +       CLOUDY    73  66  78 SW7       29.82R

$$

INZ006>009-017-018-025>027-180400-
NORTHEAST INDIANA

CITY           SKY/WX    TMP DP  RH WIND       PRES   REMARKS
AUBURN +       CLEAR     72  64  78 SW6       29.82S
FORT WAYNE     MOCLDY    72  66  81 SW9       29.82S
HUNTINGTON +   CLEAR     73  69  87 SW5       29.83S
KENDALLVILLE + PTCLDY    72  66  83 SW9       29.81S

$$

INZ028-029-035-036-043>045-051>053-180400-
WEST CENTRAL INDIANA

CITY           SKY/WX    TMP DP  RH WIND       PRES   REMARKS
GREENCASTLE +  PTCLDY    73  68  83 W3        29.87S
LAFAYETTE      CLEAR     71  68  90 W3        29.83R
TERRE HAUTE    CLEAR     75  70  84 W5        29.86R

$$

INZ030>032-037>040-046>048-054>057-064-065-180400-
CENTRAL INDIANA

CITY           SKY/WX    TMP DP  RH WIND       PRES   REMARKS
CP ATTERBURY + CLEAR     72  68  88 SW3       29.88R
FRANKFORT +    MOCLDY    72  69  90 W3        29.87R
GREENWOOD *+   CLEAR     73  67  80 SW3       29.86S
INDIANAPOLIS   PTCLDY    75  68  78 SW8       29.85R
-EAGLE CREEK   CLEAR     77  68  73 SW6       29.85R
KOKOMO +       CLEAR     71  68  90 SW6       29.85R
MARION +       PTCLDY    70  66  88 SW6       29.85R
MT COMFORT *+  PTCLDY    73  68  83 SW6       29.86S
SHELBYVILLE    CLEAR     74  67  78 SW6       29.86R
ZIONSVILLE +   PTCLDY    72  69  90 SW5       29.87R

$$

INZ033-034-041-042-049-050-058-059-180400-
EAST CENTRAL INDIANA

CITY           SKY/WX    TMP DP  RH WIND       PRES   REMARKS
MUNCIE         PTCLDY    76  69  79 SW6       29.85R
RICHMOND +     CLOUDY    68  66  94 SW5       29.89S

$$

INZ060-061-067>069-081>083-085>088-180400-
SOUTHWEST INDIANA

CITY           SKY/WX    TMP DP  RH WIND       PRES   REMARKS
EVANSVILLE     PTCLDY    76  71  85 SW6       29.89R
HUNTINGBURG +  PTCLDY    77  73  87 SW6       29.89R
WASHINGTON +   PTCLDY    74  71  92 MISG      29.87R

$$

INZ062-063-066-070>080-084-089>092-180400-
SOUTH CENTRAL AND SOUTHEAST INDIANA

CITY           SKY/WX    TMP DP  RH WIND       PRES   REMARKS
BEDFORD +      PTCLDY    75  72  88 CALM      29.88R
BLOOMINGTON    CLEAR     73  67  81 SW5       29.88R
MADISON *+     CLOUDY    73  72  94 CALM      29.91S
NORTH VERNON + MOCLDY    75  72  88 S8        29.88S
SEYMOUR +      PTCLDY    75  73  94 S5        29.88R

$$




USA.gov is the U.S. government's official web portal to all federal, state and local government web resources and services.